Weather History for PAGK - March, 2015

Change the Weather History Date:

Monday, March 16, 2015

  Actual Average Record
Temperature  
Mean Temperature 6 °F -  
Max Temperature 33 °F - - ()
Min Temperature -20 °F - - ()
Degree Days  
Heating Degree Days 58    
Moisture  
Dew Point -1 °F    
Average Humidity 65    
Maximum Humidity 75    
Minimum Humidity 33    
Precipitation  
Precipitation 0.00 in - - ()
Sea Level Pressure  
Sea Level Pressure 30.04 in    
Wind  
Wind Speed 3 mph (SSE)    
Max Wind Speed 17 mph    
Max Gust Speed -    
Visibility 10 miles    
Events Snow    
T = Trace of Precipitation, MM = Missing Value Source: NWS Daily Summary

Daily Weather History Graph

Daily Weather History Graph

Search for Another Location

Airport or City:

Trip Planner

Search our weather history database for the weather conditions in past years. The results will help you decide how hot, cold, wet, or windy it might be!

Date:

Astronomy

Mar. 16, 2015 Rise Set
Actual Time 7:56 AM AKDT 7:46 PM AKDT
Civil Twilight 7:11 AM AKDT 8:30 PM AKDT
Nautical Twilight 6:19 AM AKDT 9:23 PM AKDT
Astronomical Twilight 5:21 AM AKDT 10:21 PM AKDT
Moon 6:23 AM AKDT (3/16) 2:48 PM AKDT (3/16)
Length of Visible Light 13h 18m
Length of Day
11h 49m
Waning Crescent, 18% of the Moon is Illuminated
Mar 16
Waning Crescent
Mar 20
New
Mar 26
First Quarter
Apr 4
Full
Apr 11
Last Quarter

Hourly Weather History & Observations

Time (AKDT) Temp. Windchill Dew Point Humidity Pressure Visibility Wind Dir Wind Speed Gust Speed Precip Events Conditions
12:53 AM -8.0 °F - -15.0 °F 71% 30.17 in 10.0 mi Calm Calm - N/A   Clear
1:53 AM -7.1 °F - -14.1 °F 72% 30.17 in 10.0 mi Calm Calm - N/A   Clear
2:53 AM -9.9 °F - -16.1 °F 74% 30.17 in 10.0 mi Calm Calm - N/A   Clear
3:53 AM -8.0 °F - -15.0 °F 71% 30.16 in 10.0 mi Calm Calm - N/A   Clear
4:53 AM -7.1 °F - -14.1 °F 72% 30.14 in 10.0 mi Calm Calm - N/A   Clear
5:53 AM -7.1 °F -15.9 °F -13.0 °F 75% 30.12 in 10.0 mi NNW 3.5 mph - N/A   Clear
6:53 AM -9.0 °F - -15.0 °F 75% 30.12 in 10.0 mi Calm Calm - N/A   Clear
7:53 AM -8.0 °F -16.9 °F -14.1 °F 75% 30.10 in 10.0 mi WNW 3.5 mph - N/A   Mostly Cloudy
8:53 AM -5.1 °F - -11.9 °F 72% 30.08 in 10.0 mi Calm Calm - N/A   Scattered Clouds
9:53 AM -2.9 °F - -9.9 °F 72% 30.05 in 10.0 mi Calm Calm - N/A   Overcast
10:53 AM -0.0 °F - -8.0 °F 69% 30.03 in 10.0 mi Calm Calm - N/A   Overcast
11:53 AM 1.0 °F - -7.1 °F 69% 30.03 in 10.0 mi Calm Calm - N/A   Overcast
12:53 PM 3.0 °F -4.4 °F -6.0 °F 66% 30.03 in 10.0 mi SSE 3.5 mph - N/A   Mostly Cloudy
1:53 PM 8.1 °F 1.4 °F -5.1 °F 55% 30.01 in 10.0 mi NE 3.5 mph - N/A   Scattered Clouds
2:53 PM 12.9 °F 6.9 °F -0.0 °F 56% 29.99 in 10.0 mi SE 3.5 mph - N/A   Partly Cloudy
3:53 PM 21.0 °F 16.2 °F 3.9 °F 48% 29.95 in 10.0 mi North 3.5 mph - 0.00 in Snow Light Snow
4:53 PM 25.0 °F - 10.0 °F 53% 29.93 in 10.0 mi North - - 0.00 in   Clear
5:53 PM 28.9 °F 18.6 °F 15.1 °F 56% 29.92 in 10.0 mi SSE 12.7 mph - N/A   Clear
6:53 PM 30.0 °F 18.7 °F 19.0 °F 64% 29.93 in 10.0 mi SSE 16.1 mph - N/A   Scattered Clouds
7:53 PM 28.9 °F 16.9 °F 19.0 °F 67% 29.96 in 10.0 mi SSE 17.3 mph - N/A   Clear
8:53 PM 28.0 °F 17.5 °F 19.0 °F 69% 29.97 in 10.0 mi South 12.7 mph - N/A   Clear
9:53 PM 27.0 °F 16.1 °F 19.0 °F 72% 29.97 in 10.0 mi South 12.7 mph - N/A   Clear
10:53 PM 27.0 °F 16.7 °F 19.0 °F 72% 29.98 in 10.0 mi South 11.5 mph - N/A   Clear
11:53 PM 25.0 °F 14.8 °F 18.0 °F 75% 30.01 in 10.0 mi South 10.4 mph - N/A   Clear